Flag for Namibia Weather past 2 weeks in Walvis Bay, Namibia

Now
52 °F

Cool.


Feels Like: 52 °F
Forecast: 62 / 77 °F
Wind: 2 mph from Southwest

Location: Walvis Bay

Current Time: Oct 21, 2014 at 3:03:04 AM

Latest Report: Oct 21, 2014 at 2:00 AM


Visibility: N/A

Pressure: 30.04 "Hg

Humidity: 88%

Dew point: 48 °F

Location of Walvis BayLocation

Historic Weather in Walvis Bay — Graph

°F

Walvis Bay temperature yesterday

Maximum temperature yesterday: 68 °F (at 1:00 PM)
Minimum temperature yesterday: 50 °F (at 3:00 AM)
Average temperature yesterday: 58 °F

Past Weeks' High & Low Weather Summary

 TemperatureHumidityPressure
High72 °F (Oct 7, 1:00 PM)94% (Oct 9, 8:00 AM)32.01 "Hg (Oct 9, 8:00 AM)
Low45 °F (Oct 10, 4:00 AM)40% (Oct 9, 4:00 PM)29.92 "Hg (Oct 17, 3:00 PM)
Average58 °F72%30.03 "Hg
* Reported Oct 6 1:00 AM — Oct 21 1:00 AM, Walvis Bay, Weather by CustomWeather, © 2014

Note: Actual official high and low records may vary slightly from our data, if they occured in-between our weather recording intervals... More about our weather records

Advertising

Walvis Bay weather history for previous 24 hours

 ConditionsComfort  
Time TempWeatherWind HumidityBarometerVisibility
1:00 AM
Oct 21
52 °FCool.3 mph88%30.04 "HgN/A
12:00 AM52 °FCool.3 mph82%30.07 "HgN/A
11:00 PM
Oct 20
52 °FCool.5 mph88%30.07 "HgN/A
10:00 PM54 °FCool.5 mph82%30.07 "HgN/A
9:00 PM54 °FCool.7 mph82%30.07 "HgN/A
8:00 PM55 °FClear.6 mph77%30.04 "Hg10 mi
7:00 PM59 °FCool.6 mph68%30.04 "HgN/A
6:00 PM61 °FCool.7 mph68%30.04 "HgN/A
5:00 PM63 °FPassing clouds.8 mph64%30.04 "HgN/A
4:00 PM63 °FMild.12 mph64%30.04 "HgN/A
3:00 PM64 °FSunny.13 mph60%30.01 "Hg10 mi
2:00 PM66 °FSunny.14 mph56%30.01 "Hg10 mi
1:00 PM68 °FMild.12 mph53%30.04 "HgN/A
12:00 PM64 °FSunny.7 mph64%30.04 "Hg10 mi
11:00 AM61 °FPartly sunny.3 mph68%30.07 "HgN/A
10:00 AM57 °FCool.3 mph77%30.07 "HgN/A
9:00 AM57 °FOvercast.3 mph77%30.07 "HgN/A
8:00 AM55 °FOvercast.2 mph82%30.07 "HgN/A
7:00 AM54 °FCool.3 mph88%30.07 "HgN/A
5:00 AM54 °FCool.3 mph82%30.01 "HgN/A
4:00 AM54 °FCool.3 mph88%30.01 "HgN/A
3:00 AM50 °FCool.5 mph82%30.01 "HgN/A
Weather by CustomWeather, © 2014

See weather overviewHow to use our weather pages